Airfield :
LOGIN :

Register | Disclaimer

   EN    FR    IT 

 










Legend :    VFR   Marginal VFR   IFR   Intensive IFR   Very Intensive IFR
Visi :
Ceiling :
>= 8 km
>= 3000ft
5 to 8 km
1000 to 3000 ft
1500m to 5 km
500 to 1000 ft
800 to 1500m
200 to 500 ft
< 800m
< 200 ft
Symbols :   Thunderstorms  Fog  Heavy snow  Heavy precipitations  Wind > 20 kt
SIGMETs :     Misc.  Thunderstorms  Icing  Turbulence  Mountain Waves  Volcanic Ashes







- Airport Elevation : 53 ft
- IATA code : HRT


EGXU - RAF Linton-on-Ouse

CURRENT METAR :
  • 111650Z AUTO 10002KT 0100 // OVC001/// 04/03 Q1022

EXPIRED METARs :
  • 111550Z 16004KT 1500 BR OVC002 04/04 Q1022 AMB TEMPO 2000 YLO2
  • 111450Z 15005KT 1400 BR OVC002 05/04 Q1022 AMB BECMG 2000 YLO2

TAF TAF EGXU
Valid from the 11 at 15:00 until the 11 at 19:00 UTC


111327Z 1115/1119 13007KT 0600 FG BKN001
PROB40 1115/1117 3000 BR FEW002
No reported NOTAMs for that airfield.



MET'MAP, your aeronautical weather chart ! - Copyright ORBIFLY December 2007 - Disclaimer

ORBIFLY MET'MAP TEAM :

Programming & Development : Alexandra Zaïnal
Concept & Development : Baudouin d'Aumeries
Co-Development & Prog : Marc-Olivier Méhu
Technical & hardware support : Manuel Goepfert

Contact : metmap@orbifly.com




SOURCES & CREDITS :

   NOAA